RYR5BC LIBD-LICJ

Flight info

Callsign RYR5BC
Flight time 0h 48m
Altitude 31000
Route TOPNO DCT BUMOK DCT KUTID DCT AMANO/N0339F190 M742 ROSAS
Aircraft B738/M-SDE2E3FGHIRWXY/LB1

Departure

Time 2026-04-20 14:18
Airport Bari Karol Wojtyła International Airport (LIBD)

Arrival

Time 2026-04-20 15:06
Airport Falcone–Borsellino Airport (LICJ)
Time Latitude Longitude Altitude Speed Heading
2026-04-20 13:56 41.13577 16.76512 135 ft 0 kts 159°
2026-04-20 14:11 41.13580 16.76511 135 ft 3 kts 160°
2026-04-20 14:12 41.13605 16.76501 135 ft 4 kts 172°
2026-04-20 14:12 41.13631 16.76500 135 ft 4 kts 194°
2026-04-20 14:12 41.13652 16.76515 135 ft 3 kts 242°
2026-04-20 14:12 41.13656 16.76525 135 ft 0 kts 247°
2026-04-20 14:14 41.13654 16.76517 135 ft 5 kts 247°
2026-04-20 14:14 41.13620 16.76405 135 ft 21 kts 249°
2026-04-20 14:14 41.13565 16.76209 135 ft 23 kts 249°
2026-04-20 14:14 41.13617 16.76036 135 ft 22 kts 317°
2026-04-20 14:15 41.13616 16.75869 136 ft 19 kts 244°
2026-04-20 14:15 41.13555 16.75674 137 ft 27 kts 249°
2026-04-20 14:15 41.13490 16.75445 142 ft 26 kts 249°
2026-04-20 14:15 41.13429 16.75229 142 ft 24 kts 249°
2026-04-20 14:16 41.13372 16.75027 147 ft 23 kts 249°
2026-04-20 14:16 41.13317 16.74836 147 ft 22 kts 249°
2026-04-20 14:16 41.13263 16.74648 151 ft 22 kts 249°
2026-04-20 14:16 41.13210 16.74465 152 ft 21 kts 249°
2026-04-20 14:17 41.13165 16.74285 152 ft 20 kts 268°
2026-04-20 14:17 41.13239 16.74123 145 ft 22 kts 332°
2026-04-20 14:17 41.13336 16.74233 146 ft 21 kts 69°
2026-04-20 14:17 41.13453 16.74645 142 ft 90 kts 69°
2026-04-20 14:18 41.13769 16.75757 152 ft 164 kts 69°
2026-04-20 14:18 41.14180 16.77215 1009 ft 170 kts 70°
2026-04-20 14:18 41.14599 16.78791 1792 ft 195 kts 71°
2026-04-20 14:18 41.15086 16.80560 2550 ft 212 kts 68°
2026-04-20 14:19 41.15665 16.82491 2870 ft 238 kts 67°
2026-04-20 14:19 41.16293 16.84613 3287 ft 253 kts 68°
2026-04-20 14:19 41.16935 16.86811 3921 ft 257 kts 68°
2026-04-20 14:19 41.17585 16.89046 4531 ft 263 kts 67°
2026-04-20 14:20 41.18563 16.91074 5190 ft 260 kts 40°
2026-04-20 14:20 41.20115 16.92196 5881 ft 254 kts
2026-04-20 14:20 41.21851 16.92265 6537 ft 250 kts 350°
2026-04-20 14:20 41.23546 16.91766 7129 ft 252 kts 341°
2026-04-20 14:21 41.25290 16.91092 7476 ft 269 kts 341°
2026-04-20 14:21 41.27113 16.90375 8201 ft 275 kts 338°
2026-04-20 14:21 41.28725 16.89103 9176 ft 270 kts 313°
2026-04-20 14:21 41.29741 16.87030 10068 ft 271 kts 290°
2026-04-20 14:22 41.30075 16.84509 10523 ft 291 kts 268°
2026-04-20 14:22 41.29670 16.81745 10741 ft 318 kts 257°
2026-04-20 14:22 41.29060 16.78844 11236 ft 331 kts 256°
2026-04-20 14:22 41.28410 16.75884 12004 ft 335 kts 256°
2026-04-20 14:23 41.27756 16.72895 12840 ft 338 kts 256°
2026-04-20 14:23 41.27099 16.69846 13294 ft 353 kts 256°
2026-04-20 14:23 41.26412 16.66613 13459 ft 373 kts 256°
2026-04-20 14:23 41.25695 16.63215 13743 ft 388 kts 256°
2026-04-20 14:24 41.24960 16.59737 14252 ft 394 kts 256°
2026-04-20 14:24 41.24218 16.56227 14923 ft 395 kts 256°
2026-04-20 14:24 41.23326 16.52762 15554 ft 401 kts 246°
2026-04-20 14:24 41.21675 16.49735 16164 ft 410 kts 231°
2026-04-20 14:25 41.19772 16.46966 16746 ft 413 kts 231°
2026-04-20 14:25 41.17802 16.44103 17322 ft 416 kts 231°
2026-04-20 14:25 41.15846 16.41246 17881 ft 420 kts 231°
2026-04-20 14:25 41.13881 16.38359 18420 ft 423 kts 232°
2026-04-20 14:26 41.11934 16.35486 18908 ft 426 kts 232°
2026-04-20 14:26 41.09952 16.32556 19401 ft 428 kts 232°
2026-04-20 14:26 41.07961 16.29612 19896 ft 430 kts 232°
2026-04-20 14:26 41.05955 16.26647 20362 ft 433 kts 232°
2026-04-20 14:27 41.03938 16.23667 20793 ft 436 kts 232°
2026-04-20 14:27 41.01905 16.20669 21247 ft 439 kts 232°
2026-04-20 14:27 40.99857 16.17651 21685 ft 442 kts 232°
2026-04-20 14:27 40.97797 16.14618 22099 ft 444 kts 232°
2026-04-20 14:28 40.95724 16.11570 22510 ft 447 kts 232°
2026-04-20 14:28 40.93717 16.08424 22904 ft 447 kts 236°
2026-04-20 14:28 40.91882 16.05101 23292 ft 448 kts 239°
2026-04-20 14:28 40.90107 16.01702 23659 ft 450 kts 239°
2026-04-20 14:29 40.88332 15.98278 23966 ft 453 kts 239°
2026-04-20 14:29 40.86531 15.94848 24273 ft 455 kts 239°
2026-04-20 14:29 40.84704 15.91421 24567 ft 458 kts 239°
2026-04-20 14:29 40.82851 15.87989 24888 ft 460 kts 238°
2026-04-20 14:30 40.80983 15.84553 25194 ft 462 kts 238°
2026-04-20 14:30 40.79102 15.81103 25510 ft 463 kts 238°
2026-04-20 14:30 40.77221 15.77659 25936 ft 462 kts 238°
2026-04-20 14:30 40.75348 15.74229 26415 ft 459 kts 238°
2026-04-20 14:31 40.73482 15.70813 26872 ft 458 kts 238°
2026-04-20 14:31 40.71623 15.67416 27310 ft 457 kts 238°
2026-04-20 14:31 40.69671 15.64103 27733 ft 458 kts 236°
2026-04-20 14:31 40.67628 15.60877 28121 ft 459 kts 234°
2026-04-20 14:32 40.65547 15.57680 28534 ft 459 kts 234°
2026-04-20 14:32 40.63468 15.54501 29022 ft 457 kts 234°
2026-04-20 14:32 40.61404 15.51332 29528 ft 455 kts 235°
2026-04-20 14:32 40.59354 15.48161 29991 ft 454 kts 235°
2026-04-20 14:33 40.55250 15.41773 30031 ft 458 kts 235°
2026-04-20 14:33 40.51154 15.35399 30018 ft 454 kts 235°
2026-04-20 14:34 40.47080 15.29071 30043 ft 454 kts 235°
2026-04-20 14:34 40.42989 15.22731 30025 ft 456 kts 236°
2026-04-20 14:35 40.38820 15.16457 30043 ft 457 kts 234°
2026-04-20 14:35 40.34524 15.10297 30024 ft 458 kts 233°
2026-04-20 14:36 40.30228 15.04155 30043 ft 457 kts 233°
2026-04-20 14:36 40.25946 14.98006 30039 ft 457 kts 234°
2026-04-20 14:37 40.21708 14.91910 30034 ft 456 kts 233°
2026-04-20 14:37 40.17446 14.85788 30037 ft 455 kts 233°
2026-04-20 14:38 40.13191 14.79689 30032 ft 454 kts 233°
2026-04-20 14:38 40.08940 14.73609 30040 ft 453 kts 233°
2026-04-20 14:39 40.04686 14.67536 30038 ft 453 kts 233°
2026-04-20 14:39 40.00433 14.61478 30039 ft 453 kts 233°
2026-04-20 14:40 39.96176 14.55425 30033 ft 453 kts 233°
2026-04-20 14:40 39.91913 14.49377 30035 ft 453 kts 233°
2026-04-20 14:41 39.87647 14.43335 30036 ft 453 kts 233°
2026-04-20 14:41 39.83372 14.37292 30035 ft 454 kts 233°
2026-04-20 14:42 39.79090 14.31254 30032 ft 454 kts 233°
2026-04-20 14:42 39.74803 14.25219 30039 ft 454 kts 233°
2026-04-20 14:43 39.70515 14.19194 30030 ft 455 kts 232°
2026-04-20 14:43 39.66242 14.13203 30030 ft 454 kts 232°
2026-04-20 14:44 39.61917 14.07150 30032 ft 454 kts 232°
2026-04-20 14:44 39.57621 14.01150 30028 ft 454 kts 232°
2026-04-20 14:45 39.53355 13.95201 30039 ft 453 kts 232°
2026-04-20 14:45 39.49057 13.89219 30040 ft 453 kts 232°
2026-04-20 14:46 39.44707 13.83235 30029 ft 455 kts 228°
2026-04-20 14:46 39.39506 13.78536 30013 ft 466 kts 212°
2026-04-20 14:47 39.36486 13.76870 29267 ft 476 kts 205°
2026-04-20 14:47 39.33376 13.75476 28496 ft 472 kts 203°
2026-04-20 14:47 39.30264 13.74137 27668 ft 470 kts 203°
2026-04-20 14:48 39.24068 13.71445 25872 ft 470 kts 203°
2026-04-20 14:48 39.20980 13.70070 25127 ft 467 kts 204°
2026-04-20 14:48 39.17931 13.68699 24490 ft 461 kts 204°
2026-04-20 14:48 39.14914 13.67336 23842 ft 457 kts 204°
2026-04-20 14:49 39.11927 13.65984 23113 ft 453 kts 204°
2026-04-20 14:49 39.08971 13.64646 22416 ft 448 kts 204°
2026-04-20 14:49 39.06056 13.63329 21786 ft 442 kts 204°
2026-04-20 14:49 39.03166 13.62026 21143 ft 437 kts 203°
2026-04-20 14:50 39.00313 13.60740 20504 ft 432 kts 204°
2026-04-20 14:50 38.97491 13.59469 19896 ft 427 kts 204°
2026-04-20 14:50 38.94701 13.58213 19298 ft 423 kts 204°
2026-04-20 14:50 38.91941 13.56972 18704 ft 419 kts 204°
2026-04-20 14:51 38.89202 13.55743 18077 ft 415 kts 203°
2026-04-20 14:51 38.86533 13.54409 17406 ft 408 kts 210°
2026-04-20 14:51 38.84123 13.52579 16796 ft 399 kts 219°
2026-04-20 14:51 38.82667 13.51095 16379 ft 393 kts 226°
2026-04-20 14:52 38.80703 13.48697 15800 ft 388 kts 227°
2026-04-20 14:52 38.78763 13.46326 15219 ft 384 kts 226°
2026-04-20 14:52 38.76833 13.43980 14645 ft 381 kts 226°
2026-04-20 14:52 38.74917 13.41661 14080 ft 378 kts 226°
2026-04-20 14:53 38.73035 13.39392 13488 ft 375 kts 226°
2026-04-20 14:53 38.71118 13.37085 12871 ft 372 kts 225°
2026-04-20 14:53 38.69235 13.34823 12282 ft 370 kts 225°
2026-04-20 14:53 38.67393 13.32614 11722 ft 367 kts 225°
2026-04-20 14:54 38.65533 13.30385 11361 ft 363 kts 225°
2026-04-20 14:54 38.63716 13.28210 11204 ft 353 kts 225°
2026-04-20 14:54 38.61931 13.26075 11057 ft 351 kts 225°
2026-04-20 14:54 38.60165 13.23964 10900 ft 343 kts 225°
2026-04-20 14:55 38.58453 13.21920 10749 ft 331 kts 225°
2026-04-20 14:55 38.56798 13.19945 10597 ft 320 kts 225°
2026-04-20 14:55 38.55193 13.18030 10479 ft 311 kts 225°
2026-04-20 14:55 38.53638 13.16177 10348 ft 302 kts 225°
2026-04-20 14:56 38.52125 13.14372 10224 ft 293 kts 225°
2026-04-20 14:56 38.50654 13.12620 10103 ft 285 kts 224°
2026-04-20 14:56 38.49224 13.10917 9920 ft 280 kts 224°
2026-04-20 14:56 38.47801 13.09223 9626 ft 279 kts 224°
2026-04-20 14:57 38.46389 13.07543 9354 ft 277 kts 224°
2026-04-20 14:57 38.44986 13.05875 9070 ft 275 kts 224°
2026-04-20 14:57 38.43589 13.04215 8788 ft 274 kts 224°
2026-04-20 14:57 38.42200 13.02566 8508 ft 272 kts 224°
2026-04-20 14:58 38.40816 13.00923 8233 ft 271 kts 224°
2026-04-20 14:58 38.39439 12.99290 7949 ft 270 kts 223°
2026-04-20 14:58 38.38070 12.97668 7682 ft 268 kts 223°
2026-04-20 14:58 38.36732 12.96082 7598 ft 255 kts 223°
2026-04-20 14:59 38.35468 12.94585 7487 ft 242 kts 223°
2026-04-20 14:59 38.34216 12.93103 7000 ft 253 kts 223°
2026-04-20 14:59 38.32910 12.91558 6672 ft 261 kts 222°
2026-04-20 14:59 38.31582 12.89987 6404 ft 260 kts 222°
2026-04-20 15:00 38.30256 12.88420 6110 ft 260 kts 222°
2026-04-20 15:00 38.28934 12.86860 5839 ft 259 kts 221°
2026-04-20 15:00 38.27450 12.85710 5682 ft 244 kts 193°
2026-04-20 15:00 38.25834 12.85684 5614 ft 224 kts 169°
2026-04-20 15:01 38.24442 12.86308 5494 ft 207 kts 153°
2026-04-20 15:01 38.23239 12.87209 5264 ft 197 kts 150°
2026-04-20 15:01 38.22079 12.88124 4893 ft 195 kts 149°
2026-04-20 15:01 38.20928 12.89030 4506 ft 194 kts 150°
2026-04-20 15:02 38.19777 12.89930 4099 ft 195 kts 150°
2026-04-20 15:02 38.18623 12.90827 3709 ft 194 kts 150°
2026-04-20 15:02 38.17475 12.91717 3362 ft 192 kts 151°
2026-04-20 15:02 38.16348 12.92589 3122 ft 184 kts 151°
2026-04-20 15:03 38.15276 12.93419 2853 ft 178 kts 152°
2026-04-20 15:03 38.14227 12.94227 2536 ft 175 kts 151°
2026-04-20 15:03 38.13419 12.95348 2346 ft 178 kts 110°
2026-04-20 15:03 38.13477 12.96885 2314 ft 179 kts 68°
2026-04-20 15:04 38.14007 12.98358 1849 ft 187 kts 68°
2026-04-20 15:04 38.14484 12.99824 1576 ft 172 kts 68°
2026-04-20 15:04 38.14937 13.01188 1355 ft 164 kts 65°
2026-04-20 15:04 38.15380 13.02514 1148 ft 161 kts 65°
2026-04-20 15:05 38.15818 13.03824 930 ft 160 kts 64°
2026-04-20 15:05 38.16243 13.05098 711 ft 152 kts 65°
2026-04-20 15:05 38.16639 13.06279 547 ft 141 kts 65°
2026-04-20 15:05 38.17008 13.07395 366 ft 134 kts 66°
2026-04-20 15:06 38.17374 13.08478 155 ft 134 kts 65°
2026-04-20 15:06 38.17718 13.09519 64 ft 118 kts 66°
2026-04-20 15:06 38.17962 13.10230 63 ft 57 kts 66°
2026-04-20 15:06 38.18059 13.10509 67 ft 22 kts 66°
2026-04-20 15:07 38.18119 13.10685 61 ft 21 kts 67°
2026-04-20 15:07 38.18166 13.10711 66 ft 10 kts 298°
2026-04-20 15:07 38.18179 13.10620 59 ft 11 kts 277°
2026-04-20 15:07 38.18189 13.10517 63 ft 12 kts 277°
2026-04-20 15:08 38.18200 13.10416 65 ft 12 kts 290°
2026-04-20 15:08 38.18264 13.10359 58 ft 11 kts 332°
2026-04-20 15:08 38.18333 13.10317 63 ft 11 kts 353°
2026-04-20 15:08 38.18380 13.10383 64 ft 11 kts 71°
2026-04-20 15:09 38.18385 13.10398 57 ft 1 kts 68°
2026-04-20 15:09 38.18386 13.10403 64 ft 0 kts 68°